Phoenix-Mesa Gateway Airport, AZ

1:16 AM MST on April 21, 2018 (GMT -0700)
Phoenix-Mesa Gateway Airport

Weather History for KIWA - December, 2012

Change the Weather History Date:

Tuesday, December 4, 2012

  Actual Average Record
Temperature  
Mean Temperature 63 °F -  
Max Temperature 78 °F 64 °F 78 °F (2012)
Min Temperature 48 °F 40 °F 33 °F (1999)
Degree Days  
Heating Degree Days 2    
Growing Degree Days 13 (Base 50)    
Moisture  
Dew Point 38 °F    
Average Humidity 50    
Maximum Humidity 67    
Minimum Humidity 23    
Precipitation  
Precipitation 0.00 in - - ()
Sea Level Pressure  
Sea Level Pressure 30.17 in    
Wind  
Wind Speed 5 mph (ESE)    
Max Wind Speed 8 mph    
Max Gust Speed -    
Visibility 12 miles    
Events      
Averages and records for this station are not official NWS values.
T = Trace of Precipitation, MM = Missing Value Source: NWS Daily Summary

Daily Weather History Graph

Daily Weather History Graph

Search for Another Location

Airport or City:

Astronomy

Dec. 04, 2012 Rise Set
Actual Time 7:15 AM MST 5:18 PM MST
Civil Twilight 6:48 AM MST 5:46 PM MST
Nautical Twilight 6:17 AM MST 6:16 PM MST
Astronomical Twilight 5:47 AM MST 6:46 PM MST
Moon 10:58 PM MST (12/4) 11:21 AM MST (12/4)
Length of Visible Light 10h 58m
Length of Day
10h 03m
Waning Gibbous, 69% of the Moon is Illuminated
Dec 4
Waning Gibbous
Dec 6
Last Quarter
Dec 13
New
Dec 19
First Quarter
Dec 28
Full

Hourly Weather History & Observations

Time (MST) Temp. Dew Point Humidity Pressure Visibility Wind Dir Wind Speed Gust Speed Precip Events Conditions
12:15 AM 51.8 °F 37.4 °F 58% 30.16 in 10.0 mi SE 5.8 mph - N/A   Clear
12:35 AM 51.8 °F 37.4 °F 58% 30.16 in 10.0 mi SE 6.9 mph - N/A   Clear
12:55 AM 51.8 °F 39.2 °F 62% 30.16 in 10.0 mi ESE 8.1 mph - N/A   Clear
1:15 AM 51.8 °F 37.4 °F 58% 30.16 in 10.0 mi East 5.8 mph - N/A   Clear
1:35 AM 51.8 °F 37.4 °F 58% 30.16 in 10.0 mi East 4.6 mph - N/A   Clear
1:55 AM 48.2 °F 37.4 °F 66% 30.16 in 10.0 mi SE 5.8 mph - N/A   Clear
2:15 AM 50.0 °F 39.2 °F 66% 30.17 in 10.0 mi SE 5.8 mph - N/A   Clear
2:35 AM 50.0 °F 37.4 °F 62% 30.17 in 10.0 mi SE 6.9 mph - N/A   Clear
2:55 AM 51.8 °F 39.2 °F 62% 30.17 in 10.0 mi East 4.6 mph - N/A   Clear
3:15 AM 50.0 °F 37.4 °F 62% 30.18 in 10.0 mi East 6.9 mph - N/A   Clear
3:35 AM 51.8 °F 37.4 °F 58% 30.18 in 10.0 mi ESE 3.5 mph - N/A   Clear
3:55 AM 50.0 °F 37.4 °F 62% 30.18 in 10.0 mi SE 4.6 mph - N/A   Clear
4:15 AM 50.0 °F 37.4 °F 62% 30.18 in 10.0 mi ESE 6.9 mph - N/A   Clear
4:35 AM 51.8 °F 41.0 °F 67% 30.19 in 10.0 mi SE 6.9 mph - N/A   Clear
4:55 AM 51.8 °F 37.4 °F 58% 30.19 in 10.0 mi SE 6.9 mph - N/A   Clear
5:15 AM 50.0 °F 37.4 °F 62% 30.19 in 10.0 mi East 6.9 mph - N/A   Clear
5:47 AM 51.8 °F 39.2 °F 62% 30.20 in 20.0 mi East 5.8 mph - N/A   Scattered Clouds
6:47 AM 50.0 °F 37.4 °F 62% 30.22 in 20.0 mi East 6.9 mph - N/A   Mostly Cloudy
7:47 AM 51.8 °F 39.2 °F 62% 30.25 in 20.0 mi East 6.9 mph - N/A   Mostly Cloudy
8:47 AM 55.4 °F 41.0 °F 58% 30.26 in 35.0 mi ESE 4.6 mph - N/A   Mostly Cloudy
9:47 AM 60.8 °F 41.0 °F 48% 30.27 in 35.0 mi ESE 5.8 mph - N/A   Mostly Cloudy
10:49 AM 64.4 °F 41.0 °F 42% 30.26 in 35.0 mi Calm Calm - N/A   Mostly Cloudy
11:48 AM 66.2 °F 39.2 °F 37% 30.22 in 35.0 mi WNW 4.6 mph - N/A   Mostly Cloudy
12:47 PM 71.6 °F 42.8 °F 35% 30.19 in 35.0 mi WNW 6.9 mph - N/A   Mostly Cloudy
1:50 PM 73.4 °F 39.2 °F 29% 30.16 in 35.0 mi South 5.8 mph - N/A   Mostly Cloudy
2:47 PM 77.0 °F 37.4 °F 24% 30.14 in 35.0 mi West 5.8 mph - N/A   Mostly Cloudy
3:47 PM 78.8 °F 37.4 °F 23% 30.14 in 35.0 mi West 6.9 mph - N/A   Scattered Clouds
4:47 PM 75.2 °F 37.4 °F 25% 30.14 in 45.0 mi WNW 5.8 mph - N/A   Scattered Clouds
5:47 PM 71.6 °F 37.4 °F 29% 30.14 in 20.0 mi WNW 4.6 mph - N/A   Scattered Clouds
6:47 PM 64.4 °F 37.4 °F 37% 30.15 in 20.0 mi Calm Calm - N/A   Scattered Clouds
7:47 PM 62.6 °F 37.4 °F 39% 30.14 in 20.0 mi Calm Calm - N/A   Scattered Clouds
7:55 PM 60.8 °F 37.4 °F 42% 30.14 in 5.0 mi Calm Calm - N/A   Haze
8:15 PM 59.0 °F 37.4 °F 45% 30.14 in 7.0 mi Calm Calm - N/A   Clear
8:35 PM 57.2 °F 35.6 °F 44% 30.15 in 10.0 mi Calm Calm - N/A   Clear
8:47 PM 57.2 °F 37.4 °F 48% 30.15 in 20.0 mi ESE 3.5 mph - N/A   Scattered Clouds
8:55 PM 57.2 °F 35.6 °F 44% 30.15 in 10.0 mi Calm Calm - N/A   Clear
9:15 PM 57.2 °F 35.6 °F 44% 30.15 in 10.0 mi East 5.8 mph - N/A   Clear
9:35 PM 57.2 °F 37.4 °F 48% 30.16 in 10.0 mi SE 5.8 mph - N/A   Clear
9:55 PM 55.4 °F 37.4 °F 51% 30.16 in 10.0 mi East 6.9 mph - N/A   Clear
10:15 PM 55.4 °F 35.6 °F 47% 30.16 in 10.0 mi ESE 5.8 mph - N/A   Clear
10:35 PM 55.4 °F 35.6 °F 47% 30.15 in 10.0 mi East 6.9 mph - N/A   Clear
10:55 PM 55.4 °F 35.6 °F 47% 30.16 in 10.0 mi East 6.9 mph - N/A   Clear
11:15 PM 55.4 °F 35.6 °F 47% 30.15 in 10.0 mi East 6.9 mph - N/A   Clear
11:35 PM 57.2 °F 35.6 °F 44% 30.15 in 10.0 mi ESE 8.1 mph - N/A   Clear
11:55 PM 55.4 °F 35.6 °F 47% 30.14 in 10.0 mi ESE 5.8 mph - N/A   Clear